Location: Brachstadt
(48.6975°N, 10.6755°E)
Time: 03:41:52
(UTC+00:00)

COSMOS 2406 - Pass Details

Date: 18 September 2020
Orbit: 844 x 863 km, 71.0° (Epoch: 29 October)

Event Time Altitude Azimuth Distance (km) Brightness Sun altitude
Rises 20:47:10 0° 329° (NNW) 3,414 7.4 -31.0°
Reaches altitude 10° 20:49:38 10° 327° (NNW) 2,475 6.5 -31.3°
Enters shadow 20:54:19 56° 293° (WNW) 1,001 3.7 -31.8°
